QPF
0.00 0.00 0.00 0.00 0.00 0.00 0.00 0.00 0.00 0.00 0.00 0.00 0.00 0.00 0.00 0.00 0.00 0.00 0.00 0.00 0.00 0.00 0.00 0.00 0.00 0.00 0.00 0.00 0.00 0.00 0.00 0.00 0.00 0.00 0.00 0.00 0.00 0.00 0.00 0.00 0.00 0.02 0.04
0.00 0.00 0.00 0.00 0.00 0.00 0.00 0.00 0.00 0.00 0.00 0.00 0.00 0.00 0.00 0.00 0.00 0.00 0.00 0.00 0.00 0.00 0.00 0.00 0.00 0.00 0.00 0.00 0.00 0.00 0.00 0.00 0.00 0.00 0.00 0.00 0.00 0.00 0.00 0.00 0.00 0.00 0.02
0.00 0.00 0.00 0.00 0.00 0.00 0.00 0.00 0.00 0.00 0.00 0.00 0.00 0.00 0.00 0.00 0.00 0.00 0.00 0.00 0.00 0.00 0.00 0.00 0.00 0.00 0.00 0.00 0.00 0.00 0.00 0.00 0.00 0.00 0.00 0.00 0.00 0.00 0.00 0.00 0.00 0.00 0.01
0.00 0.00 0.00 0.00 0.00 0.00 0.00 0.00 0.00 0.00 0.00 0.00 0.00 0.00 0.00 0.00 0.00 0.00 0.00 0.00 0.00 0.00 0.00 0.00 0.00 0.00 0.00 0.00 0.00 0.00 0.00 0.00 0.00 0.00 0.00 0.00 0.00 0.00 0.00 0.00 0.00 0.00 0.01
0.00 0.00 0.00 0.00 0.00 0.00 0.00 0.00 0.00 0.01 0.01 0.00 0.00 0.00 0.00 0.00 0.00 0.00 0.00 0.00 0.00 0.00 0.00 0.00 0.00 0.00 0.00 0.00 0.00 0.00 0.00 0.00 0.00 0.00 0.00 0.00 0.00 0.00 0.00 0.00 0.00 0.00 0.01
0.00 0.00 0.00 0.01 0.01 0.02 0.02 0.02 0.03 0.02 0.01 0.00 0.00 0.00 0.00 0.00 0.00 0.00 0.00 0.00 0.00 0.00 0.00 0.00 0.00 0.00 0.00 0.00 0.00 0.00 0.00 0.00 0.00 0.00 0.00 0.00 0.00 0.00 0.00 0.00 0.00 0.00 0.01
0.01 0.02 0.01 0.03 0.05 0.05 0.04 0.02 0.02 0.01 0.01 0.00 0.01 0.00 0.00 0.00 0.00 0.00 0.00 0.00 0.00 0.00 0.00 0.00 0.00 0.00 0.00 0.01 0.03 0.03 0.02 0.02 0.01 0.01 0.00 0.00 0.00 0.00 0.00 0.00 0.00 0.00 0.01
0.01 0.02 0.03 0.01 0.03 0.02 0.02 0.02 0.02 0.01 0.01 0.00 0.01 0.01 0.00 0.00 0.00 0.00 0.00 0.00 0.00 0.00 0.00 0.00 0.00 0.00 0.00 0.00 0.01 0.04 0.05 0.02 0.01 0.01 0.01 0.00 0.00 0.00 0.00 0.00 0.00 0.00 0.01
0.02 0.01 0.01 0.00 0.01 0.00 0.01 0.02 0.02 0.03 0.02 0.01 0.00 0.01 0.01 0.00 0.00 0.00 0.00 0.00 0.00 0.00 0.00 0.00 0.00 0.00 0.00 0.00 0.00 0.00 0.01 0.02 0.01 0.01 0.01 0.01 0.00 0.00 0.00 0.00 0.00 0.00 0.01
0.01 0.00 0.00 0.01 0.00 0.00 0.01 0.01 0.01 0.02 0.02 0.01 0.00 0.00 0.00 0.00 0.01 0.00 0.00 0.00 0.00 0.00 0.00 0.00 0.00 0.00 0.00 0.00 0.00 0.00 0.00 0.00 0.01 0.00 0.00 0.01 0.01 0.00 0.00 0.00 0.00 0.00 0.01
0.00 0.00 0.00 0.01 0.01 0.01 0.01 0.01 0.01 0.01 0.01 0.01 0.00 0.00 0.00 0.00 0.00 0.01 0.00 0.00 0.00 0.00 0.00 0.00 0.00 0.00 0.00 0.00 0.00 0.00 0.00 0.01 0.01 0.00 0.00 0.00 0.00 0.00 0.00 0.00 0.00 0.00 0.01
0.00 0.00 0.00 0.00 0.01 0.01 0.01 0.01 0.01 0.00 0.01 0.01 0.01 0.01 0.01 0.01 0.01 0.01 0.01 0.00 0.00 0.00 0.00 0.00 0.00 0.00 0.00 0.00 0.01 0.01 0.02 0.03 0.01 0.01 0.00 0.00 0.00 0.00 0.00 0.00 0.00 0.00 0.01
0.00 0.00 0.00 0.00 0.00 0.01 0.00 0.00 0.00 0.01 0.01 0.01 0.02 0.02 0.02 0.02 0.01 0.02 0.02 0.02 0.01 0.00 0.00 0.00 0.00 0.00 0.00 0.00 0.02 0.05 0.10 0.05 0.02 0.01 0.00 0.00 0.00 0.00 0.00 0.00 0.00 0.00 0.01
0.00 0.00 0.00 0.00 0.00 0.00 0.00 0.01 0.01 0.01 0.01 0.01 0.01 0.02 0.03 0.03 0.04 0.05 0.06 0.06 0.05 0.03 0.01 0.00 0.00 0.00 0.01 0.04 0.10 0.12 0.17 0.07 0.04 0.02 0.01 0.00 0.00 0.00 0.00 0.00 0.00 0.00 0.01
0.00 0.00 0.00 0.01 0.01 0.02 0.02 0.02 0.02 0.02 0.02 0.02 0.02 0.03 0.03 0.04 0.04 0.05 0.05 0.05 0.06 0.05 0.03 0.01 0.02 0.03 0.06 0.13 0.23 0.25 0.21 0.10 0.03 0.01 0.00 0.00 0.00 0.00 0.00 0.00 0.00 0.00 0.01
0.01 0.01 0.02 0.02 0.02 0.02 0.02 0.02 0.02 0.03 0.03 0.03 0.04 0.04 0.04 0.04 0.04 0.04 0.05 0.06 0.09 0.11 0.08 0.03 0.02 0.04 0.08 0.14 0.26 0.27 0.24 0.15 0.07 0.03 0.01 0.00 0.00 0.00 0.00 0.00 0.00 0.01 0.03
0.02 0.02 0.03 0.03 0.02 0.02 0.02 0.03 0.04 0.04 0.03 0.03 0.03 0.03 0.02 0.02 0.03 0.04 0.05 0.06 0.07 0.09 0.08 0.04 0.03 0.04 0.08 0.14 0.21 0.20 0.18 0.14 0.11 0.09 0.04 0.02 0.02 0.01 0.01 0.00 0.01 0.04 0.08
0.02 0.03 0.03 0.03 0.02 0.02 0.03 0.04 0.04 0.03 0.03 0.02 0.02 0.03 0.03 0.03 0.03 0.03 0.04 0.05 0.06 0.08 0.09 0.06 0.03 0.02 0.04 0.10 0.13 0.13 0.13 0.13 0.14 0.15 0.09 0.04 0.02 0.02 0.06 0.04 0.02 0.07 0.14
0.03 0.03 0.03 0.02 0.02 0.03 0.03 0.03 0.02 0.01 0.02 0.02 0.03 0.04 0.05 0.05 0.03 0.03 0.04 0.05 0.06 0.07 0.08 0.07 0.04 0.03 0.07 0.14 0.18 0.17 0.13 0.15 0.16 0.14 0.11 0.06 0.03 0.05 0.29 0.36 0.15 0.12 0.18
0.03 0.02 0.02 0.01 0.01 0.02 0.02 0.01 0.01 0.01 0.02 0.02 0.03 0.05 0.06 0.05 0.04 0.05 0.06 0.07 0.08 0.08 0.07 0.07 0.05 0.04 0.08 0.13 0.14 0.16 0.15 0.13 0.14 0.09 0.09 0.08 0.07 0.16 0.53 1.04 0.53 0.26 0.23
0.01 0.01 0.01 0.01 0.01 0.01 0.00 0.00 0.00 0.00 0.01 0.02 0.03 0.05 0.05 0.04 0.06 0.06 0.05 0.05 0.07 0.08 0.08 0.07 0.05 0.05 0.06 0.10 0.11 0.11 0.10 0.14 0.14 0.10 0.14 0.13 0.23 0.45 0.73 1.26 1.01 0.60 0.47
0.00 0.01 0.01 0.01 0.01 0.00 0.00 0.00 0.00 0.00 0.01 0.02 0.03 0.04 0.02 0.02 0.02 0.02 0.03 0.05 0.06 0.06 0.07 0.07 0.06 0.06 0.06 0.07 0.08 0.09 0.08 0.13 0.11 0.08 0.09 0.14 0.34 0.62 0.85 1.08 1.07 0.83 0.71
0.01 0.01 0.01 0.00 0.01 0.01 0.00 0.00 0.00 0.00 0.01 0.02 0.04 0.02 0.01 0.01 0.01 0.01 0.02 0.05 0.08 0.09 0.08 0.07 0.06 0.05 0.05 0.05 0.06 0.10 0.09 0.10 0.11 0.07 0.05 0.09 0.26 0.53 0.69 0.83 0.89 0.82 0.75
0.01 0.01 0.01 0.00 0.01 0.01 0.00 0.00 0.00 0.00 0.01 0.02 0.02 0.01 0.01 0.01 0.01 0.02 0.05 0.10 0.10 0.09 0.09 0.10 0.08 0.05 0.04 0.04 0.04 0.05 0.06 0.10 0.09 0.05 0.03 0.08 0.22 0.38 0.47 0.53 0.59 0.59 0.57
0.01 0.01 0.01 0.01 0.01 0.01 0.00 0.00 0.00 0.00 0.00 0.01 0.01 0.01 0.01 0.01 0.01 0.04 0.08 0.12 0.13 0.15 0.21 0.26 0.19 0.11 0.12 0.10 0.05 0.04 0.05 0.09 0.09 0.05 0.03 0.06 0.14 0.23 0.27 0.27 0.28 0.27 0.27
0.01 0.00 0.00 0.01 0.01 0.00 0.00 0.00 0.00 0.00 0.00 0.00 0.01 0.01 0.01 0.02 0.03 0.05 0.09 0.13 0.15 0.18 0.25 0.31 0.18 0.12 0.11 0.12 0.11 0.05 0.07 0.11 0.09 0.03 0.02 0.04 0.06 0.09 0.13 0.11 0.08 0.08 0.08
MSLP
1014.71 1014.85 1014.92 1014.93 1014.92 1014.92 1014.94 1014.97 1015.00 1015.01 1014.96 1014.85 1014.67 1014.47 1014.25 1014.07 1013.95 1013.92 1013.96 1014.05 1014.17 1014.28 1014.37 1014.41 1014.41 1014.38 1014.36 1014.34 1014.36 1014.40 1014.46 1014.52 1014.55 1014.55 1014.52 1014.45 1014.36 1014.27 1014.19 1014.14 1014.13 1014.15 1014.20
1014.72 1014.86 1014.92 1014.92 1014.90 1014.87 1014.86 1014.87 1014.88 1014.88 1014.84 1014.75 1014.61 1014.43 1014.23 1014.03 1013.87 1013.76 1013.70 1013.69 1013.71 1013.73 1013.75 1013.75 1013.75 1013.75 1013.77 1013.81 1013.88 1013.98 1014.08 1014.18 1014.25 1014.28 1014.27 1014.22 1014.14 1014.05 1013.96 1013.89 1013.83 1013.80 1013.80
1014.75 1014.88 1014.95 1014.96 1014.93 1014.89 1014.87 1014.86 1014.86 1014.85 1014.82 1014.75 1014.62 1014.45 1014.24 1014.02 1013.80 1013.60 1013.44 1013.31 1013.21 1013.14 1013.10 1013.07 1013.07 1013.09 1013.15 1013.24 1013.36 1013.50 1013.65 1013.78 1013.87 1013.93 1013.95 1013.92 1013.87 1013.80 1013.72 1013.64 1013.57 1013.51 1013.47
1014.78 1014.92 1015.00 1015.03 1015.01 1014.98 1014.95 1014.92 1014.91 1014.89 1014.86 1014.79 1014.66 1014.48 1014.25 1013.98 1013.69 1013.40 1013.12 1012.88 1012.68 1012.53 1012.42 1012.37 1012.36 1012.41 1012.50 1012.63 1012.78 1012.95 1013.12 1013.27 1013.38 1013.46 1013.50 1013.51 1013.49 1013.45 1013.40 1013.34 1013.27 1013.20 1013.14
1014.82 1014.97 1015.06 1015.11 1015.12 1015.10 1015.07 1015.04 1015.01 1014.98 1014.93 1014.84 1014.70 1014.49 1014.22 1013.89 1013.52 1013.14 1012.77 1012.43 1012.14 1011.91 1011.75 1011.67 1011.66 1011.71 1011.82 1011.97 1012.14 1012.32 1012.49 1012.64 1012.76 1012.86 1012.93 1012.97 1012.99 1012.99 1012.98 1012.94 1012.89 1012.83 1012.76
1014.88 1015.03 1015.14 1015.21 1015.24 1015.24 1015.22 1015.19 1015.15 1015.10 1015.02 1014.90 1014.72 1014.47 1014.15 1013.76 1013.32 1012.86 1012.41 1011.99 1011.62 1011.33 1011.13 1011.01 1010.98 1011.03 1011.13 1011.27 1011.44 1011.60 1011.77 1011.91 1012.04 1012.15 1012.24 1012.32 1012.38 1012.43 1012.45 1012.46 1012.43 1012.37 1012.30
1014.99 1015.13 1015.25 1015.34 1015.39 1015.40 1015.39 1015.36 1015.31 1015.23 1015.12 1014.96 1014.74 1014.44 1014.07 1013.64 1013.14 1012.62 1012.10 1011.62 1011.19 1010.85 1010.60 1010.44 1010.38 1010.39 1010.46 1010.58 1010.71 1010.85 1010.99 1011.13 1011.26 1011.38 1011.50 1011.62 1011.73 1011.82 1011.89 1011.93 1011.92 1011.87 1011.78
1015.19 1015.30 1015.41 1015.50 1015.57 1015.59 1015.59 1015.55 1015.48 1015.38 1015.24 1015.05 1014.79 1014.46 1014.05 1013.58 1013.05 1012.49 1011.93 1011.40 1010.93 1010.53 1010.23 1010.02 1009.89 1009.85 1009.86 1009.92 1010.01 1010.12 1010.24 1010.36 1010.50 1010.65 1010.81 1010.97 1011.13 1011.26 1011.37 1011.42 1011.42 1011.37 1011.26
1015.49 1015.56 1015.64 1015.72 1015.78 1015.81 1015.80 1015.76 1015.69 1015.57 1015.40 1015.19 1014.90 1014.55 1014.13 1013.64 1013.10 1012.53 1011.95 1011.39 1010.88 1010.44 1010.07 1009.79 1009.58 1009.45 1009.39 1009.37 1009.40 1009.47 1009.57 1009.70 1009.86 1010.05 1010.25 1010.46 1010.66 1010.82 1010.95 1011.01 1011.00 1010.92 1010.78
1015.88 1015.90 1015.93 1015.98 1016.02 1016.04 1016.03 1015.98 1015.90 1015.77 1015.59 1015.37 1015.08 1014.73 1014.31 1013.84 1013.31 1012.75 1012.18 1011.61 1011.07 1010.58 1010.14 1009.77 1009.47 1009.24 1009.07 1008.98 1008.94 1008.97 1009.06 1009.21 1009.40 1009.63 1009.88 1010.13 1010.35 1010.53 1010.65 1010.69 1010.65 1010.53 1010.35
1016.33 1016.27 1016.25 1016.25 1016.26 1016.26 1016.24 1016.18 1016.09 1015.96 1015.78 1015.56 1015.28 1014.95 1014.56 1014.12 1013.64 1013.11 1012.56 1012.01 1011.45 1010.91 1010.41 1009.95 1009.54 1009.20 1008.94 1008.76 1008.67 1008.67 1008.75 1008.92 1009.15 1009.41 1009.69 1009.96 1010.18 1010.34 1010.42 1010.40 1010.30 1010.12 1009.89
1016.77 1016.64 1016.56 1016.51 1016.47 1016.44 1016.39 1016.33 1016.23 1016.09 1015.92 1015.70 1015.44 1015.15 1014.80 1014.42 1013.99 1013.52 1013.02 1012.48 1011.93 1011.36 1010.80 1010.26 1009.76 1009.32 1008.97 1008.72 1008.58 1008.56 1008.64 1008.83 1009.08 1009.37 1009.65 1009.89 1010.07 1010.16 1010.14 1010.03 1009.84 1009.58 1009.29
1017.15 1016.95 1016.81 1016.70 1016.62 1016.55 1016.48 1016.39 1016.28 1016.13 1015.96 1015.75 1015.51 1015.24 1014.95 1014.62 1014.26 1013.86 1013.42 1012.92 1012.39 1011.81 1011.21 1010.61 1010.04 1009.53 1009.11 1008.81 1008.64 1008.61 1008.70 1008.90 1009.15 1009.42 1009.66 1009.83 1009.89 1009.85 1009.69 1009.44 1009.12 1008.77 1008.42
1017.43 1017.18 1016.98 1016.82 1016.70 1016.59 1016.48 1016.37 1016.23 1016.06 1015.87 1015.65 1015.42 1015.18 1014.92 1014.65 1014.36 1014.03 1013.64 1013.20 1012.70 1012.14 1011.53 1010.90 1010.30 1009.75 1009.30 1008.98 1008.80 1008.77 1008.87 1009.06 1009.29 1009.50 1009.64 1009.67 1009.56 1009.32 1008.96 1008.51 1008.04 1007.58 1007.18
1017.59 1017.31 1017.07 1016.88 1016.72 1016.57 1016.43 1016.28 1016.09 1015.89 1015.66 1015.42 1015.17 1014.93 1014.69 1014.46 1014.21 1013.94 1013.62 1013.23 1012.77 1012.24 1011.65 1011.04 1010.43 1009.89 1009.45 1009.14 1008.98 1008.97 1009.07 1009.24 1009.41 1009.53 1009.52 1009.36 1009.02 1008.53 1007.92 1007.25 1006.59 1006.01 1005.57
1017.66 1017.36 1017.11 1016.90 1016.71 1016.54 1016.36 1016.16 1015.92 1015.66 1015.37 1015.08 1014.79 1014.52 1014.27 1014.05 1013.83 1013.59 1013.31 1012.97 1012.56 1012.07 1011.52 1010.94 1010.37 1009.87 1009.48 1009.22 1009.11 1009.13 1009.24 1009.39 1009.50 1009.49 1009.30 1008.92 1008.32 1007.55 1006.66 1005.74 1004.89 1004.19 1003.72
1017.66 1017.37 1017.13 1016.91 1016.72 1016.52 1016.31 1016.05 1015.76 1015.42 1015.06 1014.69 1014.34 1014.02 1013.73 1013.48 1013.24 1013.01 1012.75 1012.44 1012.06 1011.61 1011.11 1010.58 1010.08 1009.65 1009.33 1009.15 1009.12 1009.20 1009.34 1009.48 1009.52 1009.40 1009.04 1008.43 1007.58 1006.53 1005.38 1004.23 1003.20 1002.40 1001.90
1017.62 1017.37 1017.15 1016.95 1016.76 1016.56 1016.31 1016.01 1015.65 1015.24 1014.80 1014.34 1013.90 1013.50 1013.14 1012.84 1012.56 1012.30 1012.02 1011.71 1011.34 1010.91 1010.45 1009.98 1009.55 1009.21 1008.99 1008.92 1008.99 1009.15 1009.36 1009.51 1009.53 1009.32 1008.83 1008.05 1006.99 1005.72 1004.36 1003.02 1001.85 1000.97 1000.47
1017.57 1017.36 1017.18 1017.01 1016.84 1016.63 1016.36 1016.03 1015.61 1015.13 1014.61 1014.06 1013.54 1013.04 1012.60 1012.21 1011.87 1011.55 1011.22 1010.87 1010.48 1010.05 1009.61 1009.19 1008.83 1008.59 1008.48 1008.53 1008.72 1009.00 1009.30 1009.52 1009.56 1009.33 1008.78 1007.91 1006.73 1005.33 1003.84 1002.39 1001.15 1000.23 999.74
1017.50 1017.34 1017.20 1017.08 1016.92 1016.72 1016.44 1016.08 1015.62 1015.09 1014.50 1013.88 1013.27 1012.69 1012.16 1011.68 1011.24 1010.83 1010.43 1010.01 1009.58 1009.13 1008.69 1008.30 1008.00 1007.85 1007.85 1008.03 1008.36 1008.77 1009.20 1009.52 1009.65 1009.48 1008.97 1008.11 1006.93 1005.52 1004.01 1002.55 1001.30 1000.40 999.95
1017.40 1017.29 1017.19 1017.10 1016.97 1016.79 1016.51 1016.13 1015.65 1015.08 1014.44 1013.76 1013.09 1012.44 1011.82 1011.25 1010.72 1010.22 1009.72 1009.23 1008.72 1008.23 1007.78 1007.40 1007.16 1007.08 1007.19 1007.49 1007.95 1008.52 1009.09 1009.57 1009.83 1009.80 1009.42 1008.68 1007.61 1006.31 1004.90 1003.53 1002.37 1001.54 1001.15
1017.26 1017.18 1017.12 1017.06 1016.96 1016.78 1016.51 1016.13 1015.64 1015.06 1014.40 1013.69 1012.97 1012.26 1011.58 1010.93 1010.32 1009.72 1009.13 1008.55 1007.98 1007.44 1006.97 1006.60 1006.38 1006.37 1006.57 1006.98 1007.58 1008.29 1009.02 1009.66 1010.11 1010.28 1010.10 1009.56 1008.71 1007.61 1006.40 1005.22 1004.21 1003.50 1003.19
1017.08 1017.02 1016.99 1016.95 1016.87 1016.70 1016.44 1016.07 1015.58 1015.00 1014.33 1013.62 1012.88 1012.14 1011.41 1010.70 1010.01 1009.34 1008.67 1008.02 1007.39 1006.82 1006.32 1005.96 1005.78 1005.82 1006.10 1006.61 1007.31 1008.14 1009.01 1009.82 1010.46 1010.83 1010.89 1010.62 1010.04 1009.23 1008.29 1007.36 1006.56 1006.00 1005.79
1016.88 1016.84 1016.83 1016.80 1016.72 1016.57 1016.32 1015.96 1015.48 1014.91 1014.25 1013.53 1012.79 1012.03 1011.27 1010.52 1009.78 1009.05 1008.34 1007.64 1006.99 1006.40 1005.91 1005.57 1005.43 1005.52 1005.86 1006.44 1007.22 1008.13 1009.11 1010.04 1010.84 1011.40 1011.69 1011.68 1011.40 1010.89 1010.26 1009.60 1009.03 1008.66 1008.55
1016.70 1016.68 1016.68 1016.66 1016.59 1016.44 1016.20 1015.84 1015.38 1014.81 1014.16 1013.45 1012.70 1011.93 1011.15 1010.38 1009.61 1008.86 1008.12 1007.42 1006.77 1006.20 1005.75 1005.47 1005.38 1005.52 1005.91 1006.53 1007.34 1008.30 1009.32 1010.32 1011.21 1011.92 1012.39 1012.60 1012.57 1012.35 1012.01 1011.62 1011.29 1011.09 1011.09
1016.60 1016.60 1016.62 1016.61 1016.54 1016.40 1016.15 1015.80 1015.34 1014.77 1014.12 1013.41 1012.65 1011.87 1011.07 1010.28 1009.50 1008.75 1008.02 1007.35 1006.74 1006.23 1005.85 1005.64 1005.63 1005.83 1006.25 1006.89 1007.71 1008.65 1009.66 1010.66 1011.57 1012.33 1012.91 1013.28 1013.45 1013.46 1013.36 1013.21 1013.09 1013.05 1013.15
Thickness
5713 5710 5707 5704 5703 5702 5699 5695 5694 5693 5691 5690 5692 5693 5693 5692 5691 5690 5690 5688 5688 5687 5685 5684 5683 5682 5682 5681 5681 5681 5682 5683 5684 5685 5686 5687 5690 5694 5696 5697 5698 5699 5700
5706 5702 5697 5694 5693 5692 5689 5686 5686 5683 5681 5681 5681 5682 5682 5682 5682 5681 5681 5680 5679 5679 5679 5679 5678 5677 5676 5675 5674 5673 5674 5675 5675 5675 5676 5678 5681 5685 5689 5691 5693 5695 5696
5696 5693 5691 5689 5687 5686 5682 5677 5674 5673 5670 5669 5668 5668 5668 5668 5668 5668 5667 5667 5667 5667 5669 5670 5669 5668 5667 5666 5665 5665 5665 5665 5666 5666 5668 5669 5672 5675 5680 5683 5686 5689 5692
5686 5683 5681 5680 5679 5676 5672 5668 5666 5663 5660 5658 5656 5655 5655 5654 5653 5653 5653 5654 5654 5655 5655 5654 5654 5655 5656 5656 5656 5655 5656 5656 5657 5658 5660 5661 5662 5665 5669 5674 5678 5682 5685
5676 5673 5670 5670 5668 5665 5661 5657 5654 5649 5646 5643 5642 5643 5643 5643 5642 5641 5640 5639 5639 5640 5640 5640 5638 5638 5641 5642 5643 5644 5645 5646 5646 5647 5649 5651 5653 5655 5659 5663 5668 5673 5678
5664 5661 5659 5657 5656 5654 5649 5644 5639 5637 5633 5629 5629 5630 5631 5630 5630 5629 5628 5628 5626 5624 5623 5624 5625 5623 5621 5623 5626 5629 5631 5631 5632 5634 5636 5639 5643 5646 5649 5652 5657 5662 5669
5654 5650 5646 5643 5641 5638 5634 5630 5626 5622 5619 5618 5613 5612 5616 5619 5618 5616 5614 5612 5612 5611 5610 5608 5607 5607 5606 5605 5605 5607 5611 5613 5615 5618 5621 5625 5630 5634 5638 5642 5646 5651 5658
5641 5639 5635 5630 5627 5623 5620 5615 5609 5603 5602 5601 5594 5590 5591 5597 5600 5601 5599 5596 5595 5593 5590 5588 5587 5587 5589 5590 5590 5589 5588 5591 5597 5602 5607 5612 5616 5619 5624 5630 5635 5641 5648
5626 5624 5619 5616 5613 5609 5604 5598 5592 5587 5583 5583 5578 5570 5565 5570 5576 5579 5579 5577 5575 5575 5574 5573 5573 5573 5574 5575 5576 5575 5572 5573 5577 5583 5588 5593 5600 5605 5610 5617 5623 5629 5637
5611 5606 5601 5597 5593 5588 5583 5579 5574 5566 5561 5561 5561 5556 5551 5549 5543 5549 5561 5559 5558 5559 5559 5560 5560 5561 5562 5562 5563 5562 5558 5557 5558 5561 5566 5574 5581 5589 5595 5602 5609 5617 5626
5596 5590 5584 5578 5572 5566 5560 5555 5551 5546 5541 5537 5536 5534 5530 5527 5525 5524 5538 5542 5542 5544 5544 5543 5542 5544 5545 5547 5548 5547 5546 5545 5546 5545 5547 5551 5558 5568 5576 5585 5595 5605 5615
5580 5575 5568 5560 5553 5545 5537 5530 5524 5521 5516 5513 5510 5508 5505 5505 5506 5508 5514 5520 5522 5525 5526 5525 5524 5524 5524 5524 5524 5528 5531 5531 5532 5531 5530 5532 5537 5545 5555 5566 5579 5592 5604
5563 5557 5548 5541 5533 5524 5514 5507 5501 5497 5495 5493 5491 5489 5489 5488 5489 5490 5493 5497 5500 5504 5506 5509 5508 5507 5506 5505 5505 5507 5510 5511 5512 5513 5514 5516 5520 5526 5535 5547 5562 5577 5592
5541 5533 5527 5519 5512 5503 5496 5489 5484 5482 5482 5481 5480 5479 5478 5478 5479 5479 5479 5481 5485 5491 5494 5495 5495 5494 5493 5491 5491 5491 5493 5495 5497 5498 5500 5503 5506 5512 5519 5530 5545 5562 5578
5516 5511 5506 5501 5495 5490 5484 5479 5476 5475 5474 5473 5472 5471 5471 5471 5471 5472 5472 5472 5473 5479 5485 5487 5485 5485 5483 5482 5483 5483 5484 5484 5486 5488 5489 5492 5496 5501 5509 5519 5532 5548 5566
5498 5495 5492 5489 5486 5482 5478 5475 5472 5470 5469 5467 5466 5465 5465 5466 5465 5466 5466 5467 5467 5469 5476 5480 5480 5480 5478 5478 5478 5478 5476 5477 5478 5479 5480 5483 5488 5495 5504 5515 5527 5543 5559
5490 5487 5484 5481 5479 5476 5474 5471 5468 5467 5465 5463 5461 5461 5461 5460 5460 5460 5461 5462 5464 5465 5470 5476 5476 5476 5475 5475 5475 5474 5472 5472 5472 5473 5475 5479 5485 5493 5502 5514 5529 5545 5560
5487 5483 5480 5477 5474 5471 5467 5464 5461 5459 5457 5457 5457 5458 5458 5458 5458 5456 5456 5459 5463 5465 5467 5472 5473 5473 5474 5474 5474 5472 5470 5469 5468 5470 5473 5477 5483 5491 5503 5519 5539 5555 5565
5484 5479 5475 5471 5467 5464 5459 5455 5452 5451 5451 5453 5454 5455 5456 5456 5456 5456 5457 5460 5464 5467 5467 5469 5472 5473 5473 5474 5473 5470 5467 5465 5465 5466 5469 5472 5478 5488 5504 5526 5551 5562 5565
5480 5475 5470 5464 5459 5454 5448 5443 5442 5443 5445 5448 5452 5454 5456 5456 5455 5456 5458 5461 5464 5466 5468 5469 5472 5473 5473 5473 5471 5468 5464 5461 5461 5461 5463 5466 5471 5481 5496 5522 5549 5558 5559
5475 5469 5463 5456 5449 5444 5436 5432 5432 5435 5438 5444 5448 5452 5453 5453 5454 5454 5456 5459 5462 5465 5468 5471 5473 5474 5474 5473 5470 5466 5461 5458 5456 5456 5458 5460 5462 5468 5482 5505 5530 5543 5547
5468 5461 5454 5447 5440 5433 5424 5422 5422 5425 5431 5438 5442 5445 5447 5448 5449 5452 5455 5459 5462 5467 5470 5472 5474 5475 5476 5473 5468 5464 5460 5459 5457 5453 5454 5453 5454 5457 5468 5486 5506 5522 5529
5462 5455 5447 5440 5433 5426 5418 5414 5414 5417 5424 5430 5434 5438 5440 5443 5444 5448 5453 5460 5467 5472 5475 5475 5477 5478 5477 5473 5467 5463 5460 5458 5455 5451 5452 5448 5448 5450 5457 5469 5485 5498 5507
5455 5448 5441 5434 5427 5420 5412 5408 5406 5411 5417 5421 5426 5430 5432 5435 5439 5443 5452 5462 5471 5479 5483 5482 5479 5479 5478 5472 5468 5463 5459 5455 5451 5449 5450 5445 5442 5445 5450 5459 5469 5480 5489
5449 5443 5437 5429 5422 5414 5406 5402 5400 5404 5409 5413 5418 5424 5426 5429 5433 5439 5450 5461 5471 5479 5481 5480 5479 5477 5475 5470 5467 5462 5459 5457 5451 5444 5444 5443 5439 5442 5447 5453 5460 5469 5478
5444 5438 5432 5424 5415 5407 5399 5395 5392 5396 5400 5404 5411 5416 5419 5422 5429 5436 5446 5456 5465 5471 5473 5472 5471 5470 5467 5464 5464 5464 5462 5458 5453 5444 5440 5441 5440 5445 5446 5448 5456 5463 5470